Regional Weather Roundup
Issued by NWS Mobile, AL

Home | Current Version | Previous Version | Text Only | Print | Product List | Glossary On
Versions: 1 2 3 4 5 6 7 8 9 10 11 12 13 14 15 16 17 18 19 20 21 22 23 24 25 26 27 28 29 30 31 32 33 34 35 36 37 38 39 40 41 42 43 44 45 46 47 48 49 50
543
ASUS44 KMOB 271512
RWRMOB
REGIONAL WEATHER ROUNDUP
NATIONAL WEATHER SERVICE MOBILE AL
1000 AM CDT SAT MAY 27 2017

NOTE: "FAIR" INDICATES FEW OR NO CLOUDS BELOW 12,000 FEET WITH NO
      SIGNIFICANT WEATHER AND/OR OBSTRUCTIONS TO VISIBILITY.

  * THESE STATIONS ARE PART OF THE UNIVERSITY OF SOUTH ALABAMA
    MESONET AND ARE NOT UNDER NWS OR FAA QUALITY CONTROL.

ALZ061>064-271600-
COASTAL ALABAMA

CITY           SKY/WX    TMP DP  RH WIND       PRES   REMARKS
MOBILE REG APT CLOUDY    79  72  79 SW6       30.10S
BROOKLEY FIELD PTSUNNY   80  76  87 SE6       30.10S
USA CAMPUS*      N/A     79  73  83 CALM      30.09S
DOG RIVER*       N/A     79  75  89 CALM      30.86S


CITY           SKY/WX    TMP DP  RH WIND       PRES   REMARKS
GULF SHORES    CLOUDY    79  77  94 S10       30.10R

$$

ALZ051>060-271600-
INTERIOR SOUTHWEST AND SOUTH CENTRAL ALABAMA

CITY           SKY/WX    TMP DP  RH WIND       PRES   REMARKS
GREENVILLE     PTSUNNY   79  66  64 VRB6      30.09R
EVERGREEN      CLOUDY    76  68  76 CALM      30.10S
ATMORE*          N/A     79  72  78 SW7       30.12R
ANDALUSIA/OPP  PTSUNNY   82  67  60 VRB5      30.10S
ANDALUSIA*       N/A     79  68  69 SW10      30.11S
FLORALA APT    PTSUNNY   79  65  62 VRB6      30.13R
FLORALA*         N/A     79  66  65 S3        30.84S

$$

FLZ001>006-271600-
WESTERN FLORIDA PANHANDLE

CITY           SKY/WX    TMP DP  RH WIND       PRES   REMARKS
PENSACOLA      PTSUNNY   80  72  76 E3        30.09S
NAS PENSACOLA  PTSUNNY   81  73  76 S7        30.09R
MILTON           N/A     78  71  79 W7        30.10S
WHTNG S FIELD    N/A    N/A N/A N/A MISG      30.10S


CITY           SKY/WX    TMP DP  RH WIND       PRES   REMARKS
JAY*             N/A     77  70  78 S3        30.10S
DUKE FIELD     PTSUNNY   80  67  64 W5        30.09S
CRESTVIEW      CLOUDY    80  66  62 W7        30.12R
VALPARAISO     PTSUNNY   81  69  67 CALM      30.09F
DESTIN         PTSUNNY   83  75  77 VRB5      30.10S

$$

MSZ076-079-271600-
INTERIOR SOUTHEAST MISSISSIPPI

CITY           SKY/WX    TMP DP  RH WIND       PRES   REMARKS
LEAKESVILLE*   NOT AVBL
AGRICOLA*        N/A     79  73  83 CALM      30.08S

$$

MARINE OBSERVATIONS

STATION/POSITION TIME  TEMP    WIND        PRES    WAVE
                       AIR SEA DIR/SP/G            HT/PER
                 (UTC) (F)     (DEG/KT/KT) (MB)    (FT/S)
PASCAGOULA       1448   79     180/  7/  9 1018.6R
PETIT BOIS ISLND 1448   78     210/  5/  6 1019.5R
GRAND BAY        1330   78     230/  8     1019.0R
KATRINA CUT      1430   78     230/  6     1018.6R
CEDAR POINT      1430   78     240/  5     1019.0R
E DAUPHIN ISLAND 1400   78     260/  5/  7 1018.5R
MIDDLE BAY LIGHT 1430   77     210/  6     1018.6S
USCG MOBILE BAY  1448   79 78  150/  2/  4 1019.5R
STATE DOCKS      1442   82 78              1018.7S
MEAHER PARK      1430   77     210/  2     1018.6F
FORT MORGAN      1448   78     240/  4/  5   N/A
12 S ORANGE BCH  1450   77 78  190/  4/  4 1018.8R   2/ 4
PENSACOLA BAY    1442   80 79              1019.3R
64 S DAUPHIN ISL 1450   79 78  200/  2/  4 1018.8R   2/ 5
67 S FORT MORGAN 1430   77     220/  4     1018.6R

$$

SELECTED LOCATIONS ACROSS THE REGION

CITY           SKY/WX    TMP DP  RH WIND       PRES   REMARKS
NEW ORLEANS    PTSUNNY   84  75  74 S10       30.05R
GULFPORT       CLOUDY    81  75  82 SW5       30.07R
PASCAGOULA AP  CLOUDY    81  73  76 S6        30.08S
PASCAGOULA*    NOT AVBL
HATTIESBURG    CLOUDY    77  72  84 SE7       30.07S
LAUREL         CLOUDY    75  72  88 SE7       30.09S
MERIDIAN       MOSUNNY   80  72  76 S14       30.05R
JACKSON        CLOUDY    81  71  71 SW12G18   30.02R
MONTGOMERY     MOSUNNY   78  66  66 SW9       30.09S
TROY           SUNNY     77  67  71 W8        30.11S
ASHFORD*         N/A     79  68  69 SW10      30.11S
DOTHAN         MOSUNNY   77  65  66 W10       30.15R
PANAMA CITY    MOSUNNY   80  66  62 VRB6      30.09S

$$





USA.gov is the U.S. government's official web portal to all federal, state and local government web resources and services.